Theta_e
353 357 360 362 365 353 351 349 355 359 351 345 343 351 349 347 345 347 351 350 345 348 348 350 348 352 352 351 350 350 350 350 348 346 348 348 347 344 348 351 353 349 353 350 351 352 352 352 347
356 359 359 368 366 354 352 350 357 356 351 345 343 346 348 354 352 352 352 347 347 348 351 350 347 350 351 349 349 349 350 349 349 352 353 349 348 350 350 352 349 350 353 350 351 353 352 352 352
351 362 369 372 351 352 354 349 357 354 346 343 344 340 349 355 351 351 352 350 348 352 352 352 346 344 353 352 353 353 352 352 353 352 352 353 352 351 353 353 352 350 352 352 352 350 351 352 352
347 359 357 352 352 351 350 348 349 349 342 340 342 347 343 348 349 353 351 349 349 351 352 351 352 353 353 354 354 353 354 353 352 353 350 352 353 353 353 353 353 352 352 349 352 352 352 351 351
353 360 358 352 354 352 348 347 342 342 343 344 344 348 347 348 351 352 350 351 351 352 351 351 351 353 354 354 353 352 352 352 352 353 353 351 353 353 353 352 353 352 352 351 351 351 350 347 348
358 357 358 353 355 351 349 346 347 344 344 344 347 346 346 347 348 347 348 348 344 349 351 349 351 351 350 351 353 353 353 353 353 353 353 353 353 352 352 352 353 352 352 352 352 352 351 342 342
355 353 352 350 352 354 349 347 347 346 347 345 343 348 344 346 345 348 348 349 341 341 347 350 348 348 353 355 353 353 353 351 354 353 352 351 352 351 353 351 353 353 351 351 352 351 347 347 343
352 346 350 348 351 353 348 347 347 346 350 341 342 344 346 344 349 350 350 344 342 343 347 352 352 352 352 352 353 347 352 349 350 348 347 349 350 351 347 345 346 348 353 353 352 351 347 342 343
349 345 346 349 353 352 346 346 348 348 348 342 343 342 342 349 351 351 351 353 351 351 348 344 345 346 348 349 347 348 347 346 340 342 343 344 344 347 343 341 344 346 348 350 351 351 344 340 336
344 338 345 347 349 351 347 347 350 351 350 346 340 340 341 351 351 349 350 350 351 350 349 343 345 346 340 346 342 344 342 338 338 342 339 339 347 348 349 349 349 350 349 345 348 352 346 346 346
339 340 340 346 347 348 348 349 351 350 350 342 341 340 339 342 347 347 350 350 352 350 349 345 335 332 338 343 338 334 337 338 339 342 345 340 343 346 349 350 349 350 346 346 349 347 348 347 348
342 341 343 344 345 347 349 348 351 350 348 342 339 339 338 338 342 346 348 348 350 352 351 346 342 343 346 339 335 338 340 345 348 349 349 345 348 346 346 344 348 349 348 348 347 349 349 348 347
341 343 343 343 347 347 347 349 351 349 345 341 340 340 339 340 341 345 346 345 347 350 352 350 348 346 348 348 346 346 347 347 348 349 349 350 348 348 348 347 347 346 350 350 350 350 349 349 348
338 340 344 343 346 348 341 342 349 349 345 345 343 342 340 341 341 341 342 345 345 346 347 351 349 347 347 348 347 347 350 351 349 349 349 350 350 349 350 350 349 350 350 350 350 351 349 349 349
337 338 342 342 344 349 344 343 350 346 346 345 344 343 342 341 341 342 344 344 345 345 345 349 348 347 347 348 351 350 350 351 349 349 350 350 350 350 351 349 348 349 349 350 350 348 348 349 349
339 341 345 344 344 345 343 344 342 342 347 346 345 344 343 342 341 342 345 344 345 345 346 347 346 348 349 350 349 347 349 349 349 349 350 350 349 343 350 349 348 350 348 348 343 348 346 346 347
340 344 346 346 345 345 342 342 344 341 347 347 345 345 344 342 339 342 345 345 346 346 346 347 348 349 349 348 347 346 348 352 351 350 351 351 349 343 349 351 351 351 350 348 347 345 345 346 347
339 345 344 345 346 347 346 342 341 343 347 347 345 344 343 342 339 341 344 344 344 346 348 347 349 349 348 344 346 344 348 352 352 350 349 349 347 350 351 350 350 349 349 349 349 346 345 347 348
333 341 343 343 344 345 344 345 342 343 345 348 348 347 343 341 338 340 343 344 344 344 347 349 350 350 348 347 350 349 350 353 353 352 348 342 346 352 348 350 351 347 344 347 345 344 341 343 341
332 340 344 345 344 344 344 344 343 345 348 350 349 349 346 341 338 340 342 343 343 343 345 345 344 348 349 348 349 348 351 353 353 351 348 344 352 352 350 351 347 340 344 344 342 341 338 338 341
330 332 340 344 343 342 344 343 350 350 350 349 349 346 350 344 341 340 343 346 344 344 344 344 343 345 349 348 349 349 351 354 354 351 351 351 353 354 352 350 341 342 341 341 335 337 337 337 337
326 329 331 337 342 345 342 342 349 344 344 346 348 350 349 348 342 340 345 347 348 344 343 343 343 343 347 347 348 349 351 354 353 351 352 354 354 352 354 346 341 343 340 337 338 337 339 336 337
328 327 326 329 337 331 331 335 346 343 345 345 343 346 346 341 344 343 344 347 349 349 347 346 344 345 347 347 349 352 355 353 352 353 352 354 353 353 346 343 343 343 340 339 342 339 339 338 337
324 324 320 321 322 325 325 332 336 345 343 343 342 345 346 346 344 344 343 347 349 349 351 349 346 350 350 351 352 352 353 354 354 353 352 354 354 351 344 340 344 344 341 342 343 342 340 339 336
317 317 319 322 322 326 323 336 333 341 340 341 341 340 344 341 341 345 345 346 347 349 351 351 349 348 352 351 350 354 355 354 355 352 353 355 352 344 342 343 345 340 341 343 344 342 338 335 334
319 315 316 323 325 324 321 338 342 341 340 342 340 343 345 345 345 345 345 345 347 348 349 351 351 350 350 352 350 350 356 355 353 352 350 351 352 346 343 347 345 342 344 343 344 340 335 335 335
319 317 316 319 320 320 324 338 337 341 341 342 340 345 346 347 339 340 344 344 346 348 350 352 352 352 351 352 352 352 354 354 355 353 351 350 352 346 345 346 345 342 343 342 343 336 334 333 332
319 317 317 313 323 326 322 341 339 340 339 339 341 343 346 342 339 338 338 344 345 349 351 353 353 353 355 355 355 356 355 353 355 354 352 351 352 344 345 347 346 345 344 342 340 335 333 332 329
318 317 314 313 318 321 323 330 332 336 337 338 342 341 341 342 341 339 336 340 346 347 354 356 356 355 357 358 358 358 357 357 355 356 352 344 350 345 345 346 346 345 342 338 335 333 331 328 325
318 318 313 315 318 316 319 334 334 333 337 336 341 340 338 338 341 342 338 339 345 349 354 359 359 359 358 356 359 360 359 358 358 356 347 349 346 345 347 347 345 341 337 335 334 330 326 323 319
Wind_Speed
9 5 2 2 3 5 5 3 4 6 4 2 3 8 9 7 3 5 23 22 30 29 25 21 21 21 20 21 19 19 19 18 19 17 16 15 14 14 14 12 11 10 11 11 11 12 12 13 14
12 9 1 2 4 4 4 3 8 2 7 6 15 13 9 5 8 15 17 33 33 31 27 24 22 22 20 20 19 17 16 15 16 15 14 14 13 13 11 12 12 12 12 11 11 12 13 12 13
8 7 3 2 3 3 2 5 6 2 8 6 5 4 5 7 15 16 26 34 33 28 26 23 22 22 20 19 18 17 16 15 16 14 14 13 11 12 10 11 12 12 13 12 12 11 11 11 11
5 4 3 3 8 4 3 3 5 11 10 13 15 9 6 13 8 21 35 35 32 28 25 22 22 20 19 18 18 16 16 15 15 13 13 12 11 10 10 10 11 12 11 11 11 11 11 12 11
4 1 4 3 1 4 3 10 17 13 8 15 15 9 4 9 31 39 38 32 31 29 25 24 21 20 19 17 16 15 14 15 13 13 12 11 11 10 9 9 9 11 11 10 9 9 10 12 12
4 4 3 1 3 2 2 7 15 15 14 18 15 10 3 29 36 33 35 34 32 32 27 24 21 20 18 16 15 14 14 13 12 11 11 10 10 9 9 8 8 8 8 8 8 7 8 10 11
1 3 1 1 5 5 4 6 11 17 16 10 16 11 8 21 32 35 36 33 31 31 29 25 22 20 18 17 15 14 13 13 12 12 10 9 8 8 8 7 7 7 7 7 7 7 7 7 8
4 2 3 2 6 3 7 6 14 18 10 17 18 8 17 22 34 33 35 32 32 31 30 28 26 23 20 17 14 14 13 13 12 11 11 9 8 7 7 6 5 6 7 7 7 7 6 7 7
6 1 2 5 10 6 7 11 13 11 14 10 10 14 23 35 35 31 27 24 28 27 29 27 25 23 21 17 16 14 13 13 12 11 10 9 8 6 6 6 6 6 7 8 9 10 9 9 9
7 5 7 5 7 9 12 13 10 9 16 9 16 14 24 36 33 29 26 24 23 27 29 27 25 23 20 19 17 15 13 13 12 11 9 8 8 7 7 7 7 8 8 8 10 11 9 10 10
3 6 6 4 6 11 13 9 4 14 9 20 21 19 14 28 28 28 27 32 32 33 30 27 25 24 21 18 17 16 15 14 12 11 9 8 7 5 6 7 9 12 10 12 11 11 11 11 12
5 4 7 5 6 7 8 6 5 6 8 18 21 21 14 10 20 25 25 26 26 31 31 28 26 25 22 19 15 15 16 14 13 12 11 11 9 8 6 8 9 13 14 15 16 14 14 14 14
5 5 8 8 11 8 11 8 7 13 19 19 18 15 12 8 14 28 30 28 31 29 31 30 28 26 22 18 17 16 15 16 14 15 13 13 10 9 8 9 11 12 11 12 12 14 15 15 17
11 9 9 8 11 3 11 3 5 14 20 21 19 14 9 9 12 25 24 27 29 31 31 33 31 27 25 19 17 17 17 19 19 18 17 13 12 5 9 6 6 7 8 8 13 14 15 16 16
10 6 4 8 4 4 12 7 6 10 19 20 19 16 12 10 15 21 25 29 36 30 31 35 33 31 28 18 13 12 5 20 23 20 17 7 8 10 9 6 5 6 7 8 8 10 12 12 13
4 6 4 4 7 1 5 4 7 7 19 17 17 16 15 13 15 23 31 35 34 33 30 36 30 27 26 21 16 12 7 7 15 14 18 11 9 2 8 4 6 6 4 0 3 8 9 9 8
7 2 2 2 3 3 6 6 9 10 18 15 15 16 15 13 11 22 31 36 33 32 32 38 33 31 26 21 18 15 10 4 11 16 17 12 7 3 5 3 3 6 3 2 3 4 7 10 9
2 2 4 1 7 3 4 9 6 8 16 16 14 13 14 13 11 26 32 35 34 32 38 39 33 28 21 16 15 13 12 6 11 17 14 8 3 2 3 2 1 3 3 3 3 7 8 8 13
4 4 3 2 9 10 8 11 11 6 6 11 12 9 13 14 9 26 33 37 35 31 34 34 31 28 24 21 19 16 15 9 18 15 7 5 3 5 4 1 2 3 5 4 1 3 6 10 11
11 6 5 4 9 6 12 20 15 12 6 9 8 7 10 8 9 15 27 30 36 33 34 31 27 29 28 26 23 20 19 14 16 15 9 8 5 6 7 7 4 4 9 7 5 4 6 10 16
13 5 7 9 12 11 11 6 6 7 5 7 6 10 11 12 16 13 20 28 31 35 36 33 29 28 31 28 25 19 16 10 15 13 8 9 8 10 10 9 5 10 6 6 7 7 8 7 10
9 13 8 10 6 6 4 5 2 4 2 4 9 16 15 12 9 13 17 23 28 35 38 36 30 28 30 28 26 21 18 17 15 12 9 9 11 12 11 8 8 8 6 9 10 10 11 12 14
14 11 3 4 6 3 5 4 5 2 7 10 13 18 9 6 12 15 16 29 33 34 38 38 34 31 32 32 29 24 20 19 14 13 11 12 13 12 12 8 11 8 7 8 9 10 10 12 12
4 4 8 5 4 4 3 5 5 6 9 11 17 6 7 6 11 16 23 27 29 30 32 37 39 34 35 34 30 26 24 21 15 16 17 17 16 15 12 9 10 7 8 9 8 6 8 9 10
7 6 4 5 4 7 4 2 10 14 10 12 14 11 4 10 5 4 15 20 29 29 30 34 38 37 36 36 32 26 23 20 18 19 17 19 18 18 13 12 10 8 8 6 5 8 7 9 10
4 8 6 5 3 6 4 5 6 8 3 2 7 11 8 2 7 10 10 21 26 33 34 34 35 34 38 35 32 31 23 22 22 22 21 22 22 19 14 13 10 9 6 6 6 8 9 11 10
3 2 7 4 2 4 3 6 7 3 3 2 5 15 12 14 9 7 14 22 24 32 36 36 34 34 37 39 33 32 26 22 23 22 23 23 24 22 18 16 12 10 6 6 10 9 9 8 9
6 4 3 4 1 3 5 3 4 6 5 7 7 8 11 13 27 26 17 10 20 30 36 35 37 40 40 39 36 31 29 26 22 21 21 24 27 25 21 17 15 12 8 9 7 9 9 7 9
2 1 5 6 5 4 1 5 7 10 8 9 9 13 16 18 13 17 10 14 16 27 31 35 34 33 34 37 35 32 29 26 23 23 20 20 29 26 22 18 20 14 10 9 10 11 7 7 8
6 8 6 5 5 2 4 5 2 9 8 9 14 10 6 6 4 10 11 19 20 26 28 32 31 33 36 39 37 32 27 26 22 20 17 22 25 24 22 22 19 15 10 10 9 9 8 9 11
Wind_Direction
163 134 287 289 56 50 359 42 170 121 93 332 131 102 112 31 145 160 145 162 150 148 146 144 145 140 135 131 131 128 123 123 123 122 122 120 119 115 120 128 125 129 128 122 122 127 131 132 135
150 141 30 313 76 68 304 303 59 116 147 175 78 76 54 77 53 112 119 150 150 149 151 152 149 144 137 138 133 131 128 126 123 126 125 119 121 120 123 133 121 131 121 124 124 131 132 133 137
128 151 82 49 95 118 153 56 131 129 167 162 95 30 68 111 116 137 144 148 149 150 151 149 144 143 141 138 135 136 136 135 132 128 124 121 124 126 134 133 129 129 126 128 135 139 142 140 141
263 18 18 57 93 342 181 141 143 99 90 88 104 75 77 139 114 138 148 148 149 152 151 151 151 149 147 146 143 141 143 137 130 130 129 133 138 138 140 135 135 133 132 139 144 149 151 148 148
94 56 45 87 11 169 291 94 134 131 93 98 114 110 77 110 136 143 146 150 149 151 151 151 152 152 151 149 146 148 144 135 135 133 133 140 144 144 141 141 138 135 139 143 153 158 158 149 157
43 154 98 152 150 239 340 111 126 115 116 110 106 105 111 137 136 146 151 153 153 153 152 154 155 156 153 150 150 151 147 143 146 140 143 148 152 149 147 151 149 144 149 158 167 168 164 165 164
113 98 56 197 138 178 169 132 137 138 135 134 130 120 139 144 147 149 153 155 156 156 153 154 155 154 156 160 159 153 150 150 142 150 155 158 152 156 162 165 165 169 165 172 180 185 185 187 186
175 334 3 132 116 29 172 156 144 147 152 126 134 155 163 153 150 146 151 151 153 156 159 159 161 162 164 168 166 162 159 156 154 156 159 158 166 168 175 184 178 188 187 195 200 198 201 209 217
157 345 218 158 130 179 132 120 159 144 136 160 192 143 151 140 142 138 136 145 155 160 162 164 168 171 171 171 172 169 166 166 162 162 165 165 171 177 193 199 202 207 207 209 218 216 220 219 224
171 185 168 168 148 155 149 141 141 139 152 113 113 135 144 144 143 144 152 160 167 168 171 170 172 172 173 176 177 177 176 175 169 171 172 175 190 196 203 224 237 226 228 222 223 232 241 239 240
200 160 173 162 167 144 147 146 84 119 143 145 144 158 166 145 151 160 164 167 174 172 173 177 175 175 175 180 182 179 179 183 180 181 183 183 192 212 233 249 255 243 236 234 232 234 238 246 251
51 210 143 139 117 99 120 130 131 140 157 153 152 160 168 149 162 167 167 178 169 172 175 178 178 176 176 176 182 182 187 189 197 197 197 202 202 211 229 241 250 247 243 248 239 242 245 249 254
326 249 127 135 89 95 107 84 100 119 134 142 147 157 168 176 159 177 173 177 173 177 180 181 183 185 182 188 194 194 202 205 211 218 213 214 208 222 229 254 255 249 254 261 262 250 253 257 259
292 215 153 110 102 146 111 36 95 139 141 147 154 163 183 188 169 173 169 174 177 183 186 186 190 192 190 191 194 208 227 227 224 227 221 220 227 257 237 279 262 268 262 268 266 263 273 273 260
340 351 79 28 67 111 114 29 131 144 155 157 161 167 180 205 178 180 166 172 185 185 189 189 193 196 196 190 177 175 225 219 225 225 217 230 224 266 232 266 281 275 277 262 276 271 281 288 282
335 42 74 307 87 69 344 227 246 179 159 164 167 174 184 195 214 179 172 179 178 183 176 182 188 186 190 183 185 175 166 196 221 209 209 203 207 313 235 249 275 276 291 187 273 277 295 301 305
22 103 104 306 62 83 82 277 242 203 163 166 176 178 188 200 196 169 173 180 178 178 179 172 176 179 188 202 202 193 198 190 181 203 209 217 244 276 201 232 279 268 277 251 319 306 309 317 313
210 241 199 104 358 15 347 231 277 193 161 177 184 184 186 196 196 168 175 181 184 176 177 181 186 190 192 193 182 188 202 264 187 190 209 243 237 161 160 160 93 181 273 243 290 318 321 346 344
216 256 225 194 91 352 267 250 233 170 177 176 190 189 193 194 188 166 173 179 183 186 180 180 187 190 188 183 180 190 206 202 182 193 230 277 236 187 186 182 147 116 84 98 9 26 7 24 15
276 192 234 190 199 149 261 276 253 183 190 158 148 192 196 185 169 165 165 174 181 184 188 188 192 193 192 190 192 193 200 211 209 205 228 203 185 186 190 158 150 151 118 109 73 41 63 51 57
276 193 197 208 182 180 218 247 219 47 79 144 158 188 173 191 175 168 170 174 179 181 183 188 194 195 195 196 196 201 204 217 218 212 213 192 188 177 167 159 139 129 124 102 79 76 75 69 62
258 262 202 235 141 225 170 261 49 81 40 242 193 215 181 169 169 172 174 177 180 184 186 192 193 196 195 196 197 201 201 196 211 218 198 183 180 168 165 159 152 140 114 112 90 79 72 61 53
240 240 187 136 173 165 195 93 274 205 179 232 228 233 195 171 169 184 178 187 191 184 189 194 194 195 194 194 198 203 204 202 199 198 194 185 173 167 164 168 151 137 125 116 102 80 77 69 64
241 45 36 54 51 349 232 121 265 204 199 207 231 211 217 171 199 187 196 190 199 190 190 194 195 194 195 194 197 206 214 209 196 192 189 183 180 176 170 167 163 152 140 119 105 100 79 86 79
68 59 359 355 7 233 67 86 234 210 223 210 204 62 195 148 110 83 206 192 198 192 191 195 196 197 198 200 203 204 210 200 190 185 194 183 175 175 171 165 158 159 129 111 131 126 96 93 88
208 140 151 206 218 270 333 232 258 243 33 96 92 112 104 104 143 189 194 212 203 192 192 191 194 197 203 205 207 206 204 204 205 211 199 194 186 186 180 176 158 154 148 136 130 121 94 108 96
266 126 182 142 80 45 277 306 321 69 87 76 114 119 171 194 44 251 214 220 209 193 193 189 192 196 201 204 206 207 207 205 204 206 203 196 189 186 181 176 164 152 146 121 130 119 110 104 92
144 173 54 12 25 311 301 255 235 272 228 194 191 173 183 180 183 215 232 257 199 194 192 189 192 194 200 203 204 205 209 211 205 201 204 198 193 183 175 174 173 156 143 134 134 122 118 103 84
313 339 64 116 137 178 226 274 217 212 218 167 188 214 186 208 189 213 219 237 240 197 184 183 186 188 193 200 202 203 206 208 205 206 203 198 189 178 173 169 163 153 139 136 135 124 109 90 79
169 200 136 119 247 236 145 265 359 188 217 160 195 228 277 9 15 244 242 242 202 184 179 178 180 184 196 200 200 200 201 201 196 196 186 183 178 176 171 165 153 139 125 138 135 122 104 93 79